Regional Weather Roundup
Issued by NWS Kansas City/Pleasant Hill, MO

Home | Current Version | Previous Version | Graphics & Text | Print | Product List | Glossary Off
Versions: 1 2 3 4 5 6 7 8 9 10 11 12 13 14 15 16 17 18 19 20 21 22 23 24 25 26 27

000
ASUS43 KEAX 221110
RWREAX

WEATHER ROUNDUP FOR EASTERN KANSAS AND NORTHWEST MISSOURI
NATIONAL WEATHER SERVICE KANSAS CITY/PLEASANT HILL MO
600 AM CDT MON MAY 22 2017

KSZ040-057-103>105-MOZ028-029-037-043-221200-
...KANSAS CITY METROPOLITAN AREA...

CITY           SKY/WX    TMP DP  RH WIND       PRES   REMARKS
K.C. INTL      PTCLDY    49  46  90 S8        30.06S
K.C. DOWNTOWN  CLEAR     56  47  71 SW7       30.06F
LEES SUMMIT    CLEAR     57  48  72 S12       30.08F
OLATHE - IXD   CLEAR     51  48  89 S3        30.08S
OLATHE - OJC   CLEAR     53  50  89 S6        30.08S
LAWRENCE       CLEAR     49  48  97 E3        30.07S

$$

MOZ001>008-011>017-020>025-030>033-038>040-044>046-053-054-221200-
...NORTHERN AND CENTRAL MISSOURI...

CITY           SKY/WX    TMP DP  RH WIND       PRES   REMARKS
ST. JOSEPH     PTCLDY    52  48  86 S3        30.05F
MOSBY          SUNNY     46  46 100 CALM      30.07S
WARRENSBURG    CLEAR     50  46  87 S5        30.08F
WHITEMAN AFB   PTCLDY    51  51 100 SW5       30.08F
CLINTON        CLEAR     48  48 100 CALM      30.10F
SEDALIA        PTCLDY    52  48  86 S6        30.10F
WARSAW         NOT AVBL
CHILLICOTHE      N/A     49  46  90 S5        30.08F
KIRKSVILLE     CLEAR     48  44  86 SW7       30.08S

$$

MOZ041-047>049-056>058-063>065-088>090-097-221200-
...EASTERN AND SOUTHERN MISSOURI...

CITY           SKY/WX    TMP DP  RH WIND       PRES   REMARKS
ST. LOUIS INTL MOCLDY    56  47  71 CALM      30.12S
SPIRIT OF STL  MOCLDY    47  47 100 CALM      30.12S
COLUMBIA       CLOUDY    50  47  89 S5        30.10F
JEFFERSON CITY CLOUDY    49  46  90 SE5       30.11F
ROLLA          MOCLDY    48  45  89 S5        30.12R
OSAGE BEACH    CLOUDY    47  46  97 CALM      30.14R
SPRINGFIELD    CLOUDY    52  49  89 SE7       30.13S
BRANSON        CLOUDY    52  48  87 CALM      30.14F
JOPLIN         PTCLDY    53  51  93 CALM      30.12S
WEST PLAINS    CLOUDY    51  47  86 CALM      30.17R

$$

IAZ060-094-KSZ022-034>040-054-083-096-NEZ052-066-093-221200-
...KANSAS...SOUTHEAST NEBRASKA AND IOWA...

CITY           SKY/WX    TMP DP  RH WIND       PRES   REMARKS
TOPEKA         MOCLDY    54  52  93 CALM      30.06F
MANHATTAN      CLOUDY    55  53  93 SW5       30.07S
EMPORIA        MOCLDY    54  52  93 S7        30.08F
CHANUTE        CLOUDY    58  54  86 CALM      30.10F
WICHITA        CLOUDY    57  53  86 S3        30.08F
OMAHA          MOCLDY    53  45  74 SE10      29.97F
LINCOLN        CLOUDY    58  51  78 SW10      30.00F
FALLS CITY     CLOUDY    55  48  77 SW7       30.04R
LAMONI         CLEAR     49  43  80 S12       30.02F
DES MOINES     PTCLDY    52  43  71 S9        29.97F

$$





USA.gov is the U.S. government's official web portal to all federal, state and local government web resources and services.